Simultaneous Nadir Overpasses (SNOs) Predictions

Prediction of SNOs between NOAA-19 and TERRA Satellite Orbit:

Table of predicted SNOs for the next 14.0 days since TLE Epoch: 12/24/2016
Index Date (NOAA-19) Time (NOAA-19) Lat,Lon (NOAA-19) SZA (NOAA-19 ) Date (TERRA) Time (TERRA) Lat,Lon (TERRA) SZA (TERRA ) Distance(km) Time Diff (sec)
1 12/25/2016 17:32:36 -74.71, 106.03 81.84 12/25/2016 17:32:38 -74.69, 106.03 81.86 1.20 2
2 12/25/2016 18:23:21 74.06, -84.95 97.60 12/25/2016 18:22:15 74.10, -87.74 97.51 85.23 66
3 12/27/2016 22:15:39 -75.08, 34.24 81.61 12/27/2016 22:16:49 -75.00, 35.74 81.63 43.75 70
4 12/27/2016 23:06:29 74.71,-157.39 98.06 12/27/2016 23:06:20 74.72,-157.34 98.07 1.89 9
5 12/30/2016 03:49:25 74.78, 131.72 97.99 12/30/2016 03:50:36 74.77, 131.71 97.98 1.94 71
6 12/30/2016 04:40:28 -74.72, -60.87 82.07 12/30/2016 04:40:05 -74.70, -60.83 82.10 3.06 23
7 01/01/2017 09:23:24 -74.78,-131.71 82.20 01/01/2017 09:24:20 -74.79,-131.65 82.18 2.29 56
8 01/01/2017 10:14:20 74.73, 35.70 97.76 01/01/2017 10:13:47 74.71, 35.79 97.74 2.95 33
9 01/03/2017 14:57:15 74.76, -35.06 97.57 01/03/2017 14:58:03 74.76, -35.17 97.57 3.19 48
10 01/03/2017 15:48:19 -74.71, 132.31 82.48 01/03/2017 15:47:32 -74.69, 132.29 82.51 2.37 47
11 01/05/2017 20:31:15 -74.78, 61.44 82.67 01/05/2017 20:31:47 -74.79, 61.46 82.66 0.94 32
